TAP9002 EGPB-EKVG

Flight info

Callsign TAP9002
Flight time 0h 44m
Altitude 30000
Route SUM DCT PEMOS/M070F300 DCT MY
Aircraft A320/M-SDE3FGHIRWY/LB1

Departure

Time 2026-04-26 14:16
Airport Sumburgh Airport (EGPB)

Arrival

Time 2026-04-26 15:00
Airport Vágar Airport (EKVG)
Time Latitude Longitude Altitude Speed Heading
2026-04-26 13:50 59.87656 -1.28889 41 ft 0 kts 120°
2026-04-26 14:09 59.87655 -1.28885 43 ft 0 kts 120°
2026-04-26 14:09 59.87654 -1.28883 43 ft 1 kts 120°
2026-04-26 14:09 59.87634 -1.28846 42 ft 6 kts 167°
2026-04-26 14:09 59.87606 -1.28923 43 ft 7 kts 262°
2026-04-26 14:10 59.87604 -1.29015 43 ft 6 kts 259°
2026-04-26 14:10 59.87594 -1.29095 43 ft 7 kts 254°
2026-04-26 14:10 59.87602 -1.29181 43 ft 5 kts 314°
2026-04-26 14:10 59.87635 -1.29232 45 ft 7 kts 323°
2026-04-26 14:11 59.87726 -1.29369 45 ft 9 kts 323°
2026-04-26 14:11 59.87769 -1.29432 46 ft 7 kts 323°
2026-04-26 14:11 59.87831 -1.29524 44 ft 13 kts 323°
2026-04-26 14:12 59.87907 -1.29634 41 ft 13 kts 324°
2026-04-26 14:12 59.87973 -1.29732 43 ft 12 kts 322°
2026-04-26 14:12 59.88035 -1.29826 44 ft 10 kts 323°
2026-04-26 14:12 59.88088 -1.29905 46 ft 12 kts 322°
2026-04-26 14:13 59.88099 -1.30205 45 ft 11 kts 264°
2026-04-26 14:13 59.88093 -1.30336 45 ft 9 kts 264°
2026-04-26 14:13 59.88087 -1.30451 45 ft 8 kts 263°
2026-04-26 14:14 59.88081 -1.30551 45 ft 7 kts 263°
2026-04-26 14:14 59.88069 -1.30631 45 ft 5 kts 238°
2026-04-26 14:14 59.88073 -1.30674 45 ft 3 kts 20°
2026-04-26 14:14 59.88075 -1.30651 45 ft 0 kts 83°
2026-04-26 14:15 59.88082 -1.30518 45 ft 43 kts 83°
2026-04-26 14:15 59.88149 -1.29340 46 ft 125 kts 84°
2026-04-26 14:16 59.88207 -1.28026 176 ft 153 kts 85°
2026-04-26 14:16 59.88369 -1.25271 1314 ft 153 kts 90°
2026-04-26 14:16 59.88458 -1.23791 1719 ft 162 kts 89°
2026-04-26 14:16 59.88696 -1.21480 2143 ft 183 kts 72°
2026-04-26 14:17 59.89577 -1.19478 2554 ft 210 kts 32°
2026-04-26 14:17 59.91037 -1.18679 2975 ft 229 kts 359°
2026-04-26 14:17 59.92649 -1.19519 3262 ft 252 kts 326°
2026-04-26 14:17 59.94054 -1.21781 3773 ft 269 kts 313°
2026-04-26 14:18 59.95324 -1.24653 4396 ft 283 kts 304°
2026-04-26 14:18 59.96513 -1.27875 5068 ft 294 kts 303°
2026-04-26 14:18 59.97708 -1.31308 5685 ft 306 kts 302°
2026-04-26 14:18 59.98948 -1.34817 6457 ft 313 kts 304°
2026-04-26 14:19 60.00241 -1.38288 7277 ft 317 kts 306°
2026-04-26 14:19 60.01606 -1.41799 8054 ft 321 kts 306°
2026-04-26 14:19 60.03017 -1.45332 8847 ft 326 kts 307°
2026-04-26 14:19 60.04446 -1.48867 9708 ft 327 kts 307°
2026-04-26 14:20 60.05889 -1.52431 10488 ft 331 kts 307°
2026-04-26 14:20 60.07344 -1.56036 11185 ft 335 kts 306°
2026-04-26 14:20 60.08801 -1.59668 11855 ft 341 kts 306°
2026-04-26 14:20 60.10293 -1.63400 12545 ft 345 kts 306°
2026-04-26 14:21 60.11799 -1.67180 13228 ft 349 kts 306°
2026-04-26 14:21 60.13325 -1.71012 13908 ft 353 kts 306°
2026-04-26 14:21 60.14868 -1.74887 14533 ft 357 kts 306°
2026-04-26 14:21 60.16422 -1.78798 15166 ft 360 kts 306°
2026-04-26 14:22 60.17984 -1.82737 15825 ft 361 kts 306°
2026-04-26 14:22 60.19559 -1.86715 16454 ft 364 kts 306°
2026-04-26 14:22 60.21138 -1.90719 17067 ft 367 kts 306°
2026-04-26 14:22 60.22728 -1.94767 17686 ft 370 kts 306°
2026-04-26 14:23 60.24327 -1.98845 18305 ft 373 kts 306°
2026-04-26 14:23 60.25938 -2.02958 18837 ft 377 kts 306°
2026-04-26 14:23 60.27551 -2.07079 19318 ft 381 kts 305°
2026-04-26 14:23 60.29196 -2.11281 19853 ft 383 kts 306°
2026-04-26 14:24 60.30854 -2.15520 20385 ft 386 kts 305°
2026-04-26 14:24 60.32522 -2.19800 20899 ft 389 kts 305°
2026-04-26 14:24 60.34197 -2.24115 21406 ft 392 kts 305°
2026-04-26 14:24 60.35886 -2.28471 21902 ft 394 kts 305°
2026-04-26 14:25 60.37588 -2.32865 22389 ft 397 kts 305°
2026-04-26 14:25 60.39297 -2.37284 22858 ft 400 kts 305°
2026-04-26 14:25 60.41014 -2.41734 23342 ft 402 kts 305°
2026-04-26 14:25 60.42739 -2.46215 23775 ft 405 kts 305°
2026-04-26 14:26 60.44474 -2.50720 24170 ft 407 kts 305°
2026-04-26 14:26 60.46199 -2.55208 24517 ft 410 kts 305°
2026-04-26 14:26 60.47957 -2.59791 24863 ft 412 kts 305°
2026-04-26 14:26 60.49718 -2.64395 25209 ft 414 kts 305°
2026-04-26 14:27 60.51491 -2.69040 25552 ft 416 kts 305°
2026-04-26 14:27 60.53267 -2.73709 25853 ft 420 kts 304°
2026-04-26 14:27 60.55055 -2.78406 26160 ft 422 kts 304°
2026-04-26 14:27 60.56857 -2.83145 26467 ft 425 kts 304°
2026-04-26 14:28 60.58666 -2.87923 26793 ft 427 kts 304°
2026-04-26 14:28 60.60481 -2.92735 27076 ft 429 kts 304°
2026-04-26 14:28 60.62278 -2.97512 27371 ft 432 kts 304°
2026-04-26 14:28 60.64103 -3.02375 27656 ft 434 kts 304°
2026-04-26 14:29 60.65940 -3.07275 27963 ft 435 kts 304°
2026-04-26 14:29 60.67781 -3.12193 28236 ft 437 kts 304°
2026-04-26 14:29 60.69655 -3.17199 28524 ft 439 kts 304°
2026-04-26 14:29 60.71488 -3.22107 28796 ft 441 kts 304°
2026-04-26 14:30 60.73348 -3.27107 29038 ft 443 kts 304°
2026-04-26 14:30 60.75215 -3.32128 29291 ft 444 kts 304°
2026-04-26 14:30 60.77078 -3.37168 29539 ft 445 kts 305°
2026-04-26 14:30 60.78947 -3.42237 29773 ft 446 kts 303°
2026-04-26 14:31 60.80822 -3.47330 29935 ft 450 kts 304°
2026-04-26 14:31 60.82711 -3.52465 30144 ft 451 kts 304°
2026-04-26 14:31 60.84602 -3.57614 30385 ft 452 kts 304°
2026-04-26 14:31 60.86492 -3.62761 30638 ft 451 kts 303°
2026-04-26 14:32 60.88374 -3.67904 30899 ft 450 kts 303°
2026-04-26 14:32 60.90246 -3.73040 31146 ft 449 kts 303°
2026-04-26 14:32 60.92114 -3.78185 31392 ft 449 kts 304°
2026-04-26 14:32 60.93983 -3.83340 31620 ft 449 kts 304°
2026-04-26 14:33 60.95850 -3.88487 31872 ft 448 kts 303°
2026-04-26 14:33 60.97711 -3.93624 32135 ft 447 kts 303°
2026-04-26 14:33 60.99569 -3.98767 32404 ft 447 kts 303°
2026-04-26 14:33 61.01369 -4.03889 32638 ft 446 kts 302°
2026-04-26 14:34 61.03145 -4.09136 32878 ft 446 kts 301°
2026-04-26 14:34 61.04888 -4.14428 33121 ft 446 kts 301°
2026-04-26 14:34 61.06607 -4.19779 33301 ft 447 kts 299°
2026-04-26 14:34 61.08320 -4.25141 33464 ft 449 kts 302°
2026-04-26 14:35 61.10070 -4.30498 33689 ft 449 kts 302°
2026-04-26 14:35 61.11830 -4.35830 33922 ft 449 kts 302°
2026-04-26 14:35 61.13600 -4.41167 34161 ft 449 kts 304°
2026-04-26 14:35 61.15369 -4.46511 34370 ft 448 kts 301°
2026-04-26 14:36 61.17115 -4.51848 34586 ft 447 kts 302°
2026-04-26 14:36 61.18845 -4.57154 35008 ft 442 kts 302°
2026-04-26 14:36 61.20540 -4.62379 35168 ft 440 kts 302°
2026-04-26 14:37 61.23991 -4.73034 35212 ft 448 kts 300°
2026-04-26 14:37 61.27441 -4.83897 35193 ft 452 kts 293°
2026-04-26 14:38 61.30862 -4.94955 35201 ft 457 kts 298°
2026-04-26 14:38 61.32637 -5.00458 35063 ft 459 kts 304°
2026-04-26 14:38 61.34441 -5.05863 34640 ft 457 kts 303°
2026-04-26 14:38 61.35670 -5.09536 34239 ft 455 kts 303°
2026-04-26 14:39 61.38019 -5.16703 33339 ft 450 kts 301°
2026-04-26 14:39 61.39746 -5.22130 32666 ft 447 kts 301°
2026-04-26 14:39 61.41424 -5.27556 31995 ft 443 kts 295°
2026-04-26 14:39 61.43044 -5.33011 31350 ft 439 kts 297°
2026-04-26 14:40 61.44680 -5.38375 30725 ft 437 kts 301°
2026-04-26 14:40 61.46356 -5.43652 30080 ft 435 kts 303°
2026-04-26 14:40 61.48051 -5.48900 29360 ft 432 kts 302°
2026-04-26 14:40 61.49725 -5.54108 28658 ft 430 kts 302°
2026-04-26 14:41 61.51351 -5.59241 27978 ft 427 kts 300°
2026-04-26 14:41 61.52966 -5.64454 27325 ft 425 kts 297°
2026-04-26 14:41 61.54553 -5.69668 26670 ft 423 kts 300°
2026-04-26 14:41 61.56139 -5.74865 26030 ft 421 kts 300°
2026-04-26 14:42 61.57724 -5.80037 25407 ft 420 kts 300°
2026-04-26 14:42 61.59302 -5.85170 24796 ft 417 kts 300°
2026-04-26 14:42 61.60872 -5.90284 24205 ft 415 kts 300°
2026-04-26 14:42 61.62435 -5.95383 23570 ft 413 kts 300°
2026-04-26 14:43 61.63988 -6.00466 22867 ft 412 kts 300°
2026-04-26 14:43 61.65530 -6.05536 22193 ft 411 kts 300°
2026-04-26 14:43 61.67070 -6.10601 21528 ft 410 kts 300°
2026-04-26 14:43 61.68585 -6.15587 20887 ft 409 kts 300°
2026-04-26 14:44 61.70115 -6.20637 20253 ft 408 kts 300°
2026-04-26 14:44 61.71636 -6.25663 19618 ft 407 kts 300°
2026-04-26 14:44 61.73154 -6.30686 19019 ft 406 kts 300°
2026-04-26 14:44 61.74668 -6.35707 18416 ft 405 kts 300°
2026-04-26 14:45 61.76179 -6.40734 17728 ft 404 kts 300°
2026-04-26 14:45 61.77195 -6.44120 17292 ft 404 kts 300°
2026-04-26 14:45 61.79181 -6.50745 16420 ft 402 kts 300°
2026-04-26 14:45 61.80674 -6.55736 15786 ft 401 kts 300°
2026-04-26 14:46 61.82161 -6.60726 15148 ft 400 kts 300°
2026-04-26 14:46 61.83637 -6.65695 14530 ft 398 kts 300°
2026-04-26 14:46 61.85104 -6.70633 14055 ft 393 kts 300°
2026-04-26 14:46 61.86547 -6.75475 13656 ft 384 kts 299°
2026-04-26 14:47 61.87951 -6.80211 13248 ft 375 kts 299°
2026-04-26 14:47 61.89319 -6.84859 12844 ft 367 kts 297°
2026-04-26 14:47 61.90647 -6.89418 12443 ft 359 kts 299°
2026-04-26 14:47 61.91949 -6.93880 12052 ft 352 kts 300°
2026-04-26 14:48 61.93230 -6.98254 11667 ft 346 kts 298°
2026-04-26 14:48 61.94488 -7.02558 11282 ft 339 kts 298°
2026-04-26 14:48 61.95722 -7.06785 10905 ft 334 kts 299°
2026-04-26 14:48 61.96922 -7.10890 10540 ft 328 kts 298°
2026-04-26 14:49 61.98116 -7.14993 10174 ft 323 kts 299°
2026-04-26 14:49 61.99287 -7.19034 9805 ft 318 kts 299°
2026-04-26 14:49 62.00420 -7.22959 9750 ft 303 kts 298°
2026-04-26 14:49 62.01494 -7.26671 9711 ft 282 kts 298°
2026-04-26 14:50 62.02482 -7.30080 9617 ft 261 kts 297°
2026-04-26 14:50 62.03411 -7.33290 9463 ft 250 kts 296°
2026-04-26 14:50 62.04321 -7.36450 9109 ft 249 kts 296°
2026-04-26 14:50 62.05224 -7.39598 8753 ft 249 kts 296°
2026-04-26 14:51 62.06124 -7.42732 8407 ft 247 kts 296°
2026-04-26 14:51 62.07018 -7.45854 8051 ft 246 kts 296°
2026-04-26 14:51 62.07904 -7.48966 7723 ft 245 kts 296°
2026-04-26 14:51 62.08786 -7.52075 7387 ft 244 kts 296°
2026-04-26 14:52 62.09653 -7.55121 7079 ft 243 kts 298°
2026-04-26 14:52 62.10582 -7.58128 6747 ft 243 kts 306°
2026-04-26 14:52 62.11784 -7.60691 6408 ft 245 kts 317°
2026-04-26 14:52 62.13112 -7.62982 6047 ft 245 kts 317°
2026-04-26 14:53 62.14427 -7.65281 5720 ft 243 kts 318°
2026-04-26 14:53 62.15732 -7.67567 5391 ft 242 kts 317°
2026-04-26 14:53 62.16837 -7.70182 5053 ft 234 kts 289°
2026-04-26 14:53 62.17001 -7.73475 4807 ft 219 kts 250°
2026-04-26 14:54 62.16244 -7.76071 4662 ft 200 kts 216°
2026-04-26 14:54 62.15020 -7.77183 4528 ft 188 kts 185°
2026-04-26 14:54 62.13777 -7.76715 4398 ft 181 kts 155°
2026-04-26 14:54 62.12910 -7.74867 4167 ft 183 kts 111°
2026-04-26 14:55 62.12675 -7.72207 3854 ft 185 kts 108°
2026-04-26 14:55 62.12343 -7.69602 3717 ft 181 kts 111°
2026-04-26 14:55 62.11992 -7.66984 3713 ft 182 kts 112°
2026-04-26 14:55 62.11646 -7.64364 3494 ft 183 kts 110°
2026-04-26 14:56 62.11305 -7.61754 3176 ft 182 kts 109°
2026-04-26 14:56 62.10969 -7.59174 2890 ft 177 kts 110°
2026-04-26 14:56 62.10652 -7.56755 2728 ft 161 kts 109°
2026-04-26 14:56 62.10348 -7.54442 2693 ft 163 kts 112°
2026-04-26 14:57 62.10048 -7.52163 2607 ft 154 kts 111°
2026-04-26 14:57 62.09776 -7.50081 2553 ft 141 kts 112°
2026-04-26 14:57 62.09514 -7.48100 2482 ft 137 kts 113°
2026-04-26 14:57 62.09256 -7.46151 2286 ft 136 kts 112°
2026-04-26 14:58 62.09002 -7.44223 2108 ft 134 kts 113°
2026-04-26 14:58 62.08749 -7.42318 1920 ft 133 kts 114°
2026-04-26 14:58 62.08500 -7.40439 1692 ft 132 kts 113°
2026-04-26 14:58 62.08254 -7.38576 1441 ft 130 kts 112°
2026-04-26 14:59 62.08012 -7.36745 1204 ft 127 kts 111°
2026-04-26 14:59 62.07803 -7.34938 961 ft 124 kts 106°
2026-04-26 14:59 62.07600 -7.33133 748 ft 124 kts 107°
2026-04-26 14:59 62.07508 -7.32544 673 ft 124 kts 112°
2026-04-26 15:00 62.06878 -7.29810 394 ft 124 kts 115°
2026-04-26 15:00 62.06472 -7.28188 293 ft 120 kts 114°
2026-04-26 15:00 62.06193 -7.27057 275 ft 47 kts 118°
2026-04-26 15:00 62.06075 -7.26584 265 ft 30 kts 118°
2026-04-26 15:01 62.05983 -7.26212 248 ft 21 kts 117°
2026-04-26 15:01 62.05950 -7.26025 245 ft 8 kts 97°
2026-04-26 15:01 62.05936 -7.26037 245 ft 5 kts 272°
2026-04-26 15:01 62.05994 -7.26250 250 ft 25 kts 297°
2026-04-26 15:02 62.06084 -7.26614 265 ft 26 kts 298°
2026-04-26 15:02 62.06162 -7.26929 276 ft 21 kts 298°
2026-04-26 15:02 62.06231 -7.27207 280 ft 23 kts 298°
2026-04-26 15:02 62.06306 -7.27508 291 ft 21 kts 298°
2026-04-26 15:03 62.06367 -7.27746 295 ft 17 kts 297°
2026-04-26 15:03 62.06425 -7.27988 295 ft 18 kts 297°
2026-04-26 15:03 62.06460 -7.28126 289 ft 13 kts 307°
2026-04-26 15:03 62.06539 -7.28113 287 ft 11 kts 22°
2026-04-26 15:04 62.06595 -7.28088 292 ft 7 kts
2026-04-26 15:04 62.06644 -7.28095 289 ft 5 kts 345°
2026-04-26 15:04 62.06666 -7.28104 289 ft 5 kts
2026-04-26 15:04 62.06697 -7.28079 293 ft 4 kts 21°
2026-04-26 15:05 62.06708 -7.28063 292 ft 1 kts 58°
2026-04-26 15:05 62.06707 -7.28054 290 ft 2 kts 78°
2026-04-26 15:05 62.06712 -7.28023 291 ft 0 kts 74°